[[{"header":{"parameterUnit":"m.s-1","parameterCategory":1,"la1":30.2991,"la2":30.254,"lo1":-89.0895,"lo2":-89.0444,"dy":0.0017,"dx":0.0017,"nx":28,"ny":28,"refTime":"2026-01-11T09:00:00:Z","depth":0,"parameterNumber":2,"parameterNumberName":"U-component_of_WINDS"},"data":[0,0,0,0,0,0,0,0,0,0,0,0,0,0,0,0,0,0,0,0,0,0,0,0,0,0,0,0,0,0,0,0,0,0,0,0,0,0,0,0,0,0,0,0,0,0,0,0,0,0,0,0,0,0,0,0,0,0,-1.3929,-1.3929,0,-1.3925,-1.3925,-1.3925,-1.386,-1.3859,-1.3857,-1.3855,-1.3854,-1.3855,-1.3857,0,0,0,0,0,0,0,0,0,0,0,0,0,-1.3883,-1.3884,-1.3929,-1.3929,-1.3929,-1.3925,-1.3925,-1.3925,-1.3861,-1.3859,-1.3857,-1.3855,-1.3853,-1.3855,-1.3857,0,0,0,0,0,0,0,0,0,0,0,0,0,-1.3893,-1.3884,-1.3929,-1.3896,-1.3893,-1.3925,-1.3925,-1.3925,-1.3861,-1.3859,-1.3856,-1.3854,-1.3853,-1.3855,-1.3857,-1.3921,0,0,-1.3864,-1.3865,0,0,0,0,0,0,0,0,-1.3893,-1.3895,-1.3901,-1.3899,-1.3895,-1.3891,-1.3908,-1.3924,-1.3862,-1.3873,-1.3855,-1.3853,-1.3868,-1.3869,-1.3874,-1.3921,-1.3921,-1.3864,-1.3866,-1.3867,-1.3867,0,0,0,0,0,0,0,-1.3892,-1.3895,-1.3928,-1.3901,-1.3898,-1.3882,-1.3881,-1.3911,-1.3885,-1.3872,-1.3867,-1.3868,-1.3866,-1.3872,-1.3873,-1.3921,-1.3864,-1.3866,-1.3868,-1.3868,-1.402,-1.4023,0,0,0,0,0,0,-1.3896,-1.3895,-1.3928,-1.3927,-1.3888,-1.3885,-1.3884,-1.3895,-1.3884,-1.388,-1.387,-1.3865,-1.3869,-1.3871,-1.3873,-1.3948,-1.3867,-1.3869,-1.387,-1.4017,-1.4021,-1.4023,0,0,0,0,0,0,-1.3895,-1.3899,-1.3928,-1.391,-1.3912,-1.3889,-1.3901,-1.3896,-1.3901,-1.3883,-1.3878,-1.388,-1.3867,-1.387,-1.3909,-1.3947,-1.387,-1.3872,-1.4014,-1.4018,-1.4022,-1.4097,0,0,0,0,0,0,-1.3894,-1.3899,-1.3923,-1.3911,-1.3913,-1.3964,-1.3904,-1.3898,-1.3905,-1.3899,-1.3891,-1.3888,-1.3866,-1.3906,-1.3912,-1.3948,-1.3874,-1.4011,-1.4016,-1.4021,-1.4091,-1.4103,-1.4113,0,0,0,0,0,-1.3893,-1.3945,-1.3925,-1.3929,-1.3942,-1.3966,-1.3968,-1.3941,-1.3908,-1.3932,-1.392,-1.3888,-1.3941,-1.3911,-1.3916,-1.3954,-1.4008,-1.4015,-1.402,-1.4086,-1.4101,-1.4113,0,0,0,0,0,0,-1.3963,-1.3942,-1.392,-1.3969,-1.397,-1.3955,-1.3985,-1.3957,-1.3967,-1.3961,-1.3927,-1.3926,-1.3971,-1.3966,-1.3933,-1.4015,-1.3969,-1.3977,-1.4017,-1.4031,-1.4042,-1.4043,-1.3875,0,0,0,0,0,-1.3984,-1.4004,-1.3985,-1.4031,-1.4032,-1.4009,-1.4018,-1.3997,-1.3996,-1.3997,-1.3987,-1.3989,-1.4006,-1.4018,-1.4032,-1.4089,-1.4087,-1.4118,-1.4129,-1.4138,-1.4146,-1.4176,-1.419,-1.4043,-1.4043,-1.4043,0,0,-1.4028,-1.4019,-1.4034,-1.4045,-1.4043,-1.4066,-1.4009,-1.4035,-1.4052,-1.4001,-1.4038,-1.4031,-1.403,-1.4079,-1.41,-1.4076,-1.4186,-1.4146,-1.4154,-1.4156,-1.4184,-1.4198,-1.421,-1.4047,-1.4047,-1.4046,0,0,-1.412,-1.4115,-1.4153,-1.4152,-1.4149,-1.4133,-1.4142,-1.4131,-1.4124,-1.416,-1.4122,-1.4142,-1.4172,-1.4173,-1.4178,-1.427,-1.4241,-1.4276,-1.4334,-1.4365,-1.4376,-1.4386,-1.442,-1.4433,-1.4283,-1.4283,-1.4283,0,-1.4176,-1.4208,-1.4176,-1.4205,-1.4211,-1.4164,-1.4203,-1.4203,-1.4206,-1.4212,-1.4185,-1.4221,-1.4217,-1.4266,-1.4289,-1.4294,-1.4304,-1.4277,-1.4377,-1.4387,-1.4396,-1.4428,-1.4441,-1.4287,-1.4287,-1.4286,-1.4286,0,-1.4277,-1.4299,-1.433,-1.4333,-1.4343,-1.4376,-1.435,-1.4364,-1.4342,-1.4329,-1.4366,-1.436,-1.4373,-1.4382,-1.4361,-1.4428,-1.4414,-1.4382,-1.4336,-1.4415,-1.4444,-1.4456,-1.4293,-1.4292,-1.429,-1.4289,0,0,-1.4415,-1.4399,-1.4411,-1.4412,-1.4405,-1.4422,-1.4454,-1.4465,-1.4478,-1.4481,-1.4508,-1.4534,-1.4504,-1.451,-1.4488,-1.4515,-1.459,-1.448,-1.4479,-1.4502,-1.4665,-1.469,-1.4704,-1.4569,-1.4572,-1.4573,-1.4665,0,-1.4505,-1.4557,-1.4529,-1.4586,-1.4607,-1.4563,-1.459,-1.459,-1.4578,-1.4595,-1.4581,-1.4601,-1.456,-1.4563,-1.4587,-1.4575,-1.4622,-1.4568,-1.4595,-1.4597,-1.4598,-1.472,-1.4746,-1.4833,-1.4676,-1.4678,-1.468,0,-1.4617,-1.4624,-1.4683,-1.4672,-1.468,-1.4706,-1.4714,-1.473,-1.4729,-1.4718,-1.4724,-1.4696,-1.4727,-1.4679,-1.4722,-1.4686,-1.4695,-1.4691,-1.4694,-1.4697,-1.4644,-1.4727,-1.486,-1.4874,-1.4697,-1.4696,-1.4695,0,-1.4714,-1.4738,-1.4776,-1.4778,-1.4766,-1.4785,-1.4781,-1.4777,-1.4786,-1.4793,-1.4799,-1.481,-1.4817,-1.4827,-1.4803,-1.477,-1.485,-1.48,-1.4843,-1.4844,-1.4864,-1.4863,-1.5001,-1.4867,-1.4867,-1.4866,-1.4866,0,-1.4818,-1.4856,-1.4819,-1.4843,-1.4885,-1.4852,-1.4895,-1.4886,-1.4882,-1.4904,-1.4866,-1.4888,-1.4854,-1.4873,-1.4854,-1.4893,-1.4896,-1.4889,-1.4885,-1.4894,-1.4895,-1.4901,-1.4895,-1.487,-1.4869,-1.4868,-1.4868,0,-1.4934,-1.491,-1.495,-1.4935,-1.4932,-1.4963,-1.4951,-1.4973,-1.4958,-1.4986,-1.4991,-1.4968,-1.4988,-1.4965,-1.4982,-1.497,-1.5023,-1.5009,-1.5024,-1.5021,-1.5066,-1.5063,-1.5214,-1.5233,-1.5085,-1.5087,-1.5088,0,-1.5003,-1.5031,-1.5019,-1.5031,-1.5029,-1.5048,-1.5056,-1.5025,-1.5036,-1.5036,-1.5058,-1.5075,-1.5086,-1.512,-1.5106,-1.5119,-1.5105,-1.5157,-1.5107,-1.5116,-1.5108,-1.5108,-1.5111,-1.5168,-1.517,-1.5172,-1.5173,0,-1.5128,-1.5115,-1.5129,-1.5139,-1.515,-1.5156,-1.516,-1.5172,-1.5139,-1.5153,-1.5173,-1.5182,-1.5199,-1.5217,-1.5226,-1.5223,-1.5193,-1.5188,-1.5199,-1.521,-1.5219,-1.5216,-1.5054,-1.5185,-1.5184,-1.5183,-1.5183,-1.5182,-1.5224,-1.5247,-1.5242,-1.5259,-1.5258,-1.5262,-1.5282,-1.5269,-1.5284,-1.5296,-1.5277,-1.5302,-1.5299,-1.5309,-1.5309,-1.5328,-1.5306,-1.5322,-1.5326,-1.5331,-1.5338,-1.5214,-1.5329,-1.5329,-1.5329,-1.5328,-1.5328,0,-1.5349,-1.5343,-1.5359,-1.5364,-1.5378,-1.5347,-1.5349,-1.5363,-1.5385,-1.5384,-1.5396,-1.5419,-1.5435,-1.5421,-1.5435,-1.5453,-1.544,-1.5458,-1.5458,-1.5458,-1.5357,-1.5346,-1.5469,-1.5469,-1.5469,-1.5469,-1.5469,-1.5469,-1.5416,-1.5454,-1.544,-1.5477,-1.5471,-1.5495,-1.5499,-1.5503,-1.5502,-1.5529,-1.5542,-1.5533,-1.5527,-1.554,-1.5554,-1.555,-1.5557,-1.5581,-1.5572,-1.5478,-1.5465,-1.5451,-1.5442,-1.5582,-1.5582,-1.5671,-1.5672,-1.5673]},{"header":{"parameterUnit":"m.s-1","parameterCategory":1,"la1":30.2991,"la2":30.254,"lo1":-89.0895,"lo2":-89.0444,"dy":0.0017,"dx":0.0017,"nx":28,"ny":28,"refTime":"2026-01-11T09:00:00:Z","depth":0,"parameterNumber":3,"parameterNumberName":"V-component_of_WINDS"},"data":[0,0,0,0,0,0,0,0,0,0,0,0,0,0,0,0,0,0,0,0,0,0,0,0,0,0,0,0,0,0,0,0,0,0,0,0,0,0,0,0,0,0,0,0,0,0,0,0,0,0,0,0,0,0,0,0,0,0,-3.0066,-3.0066,0,-3.0072,-3.0072,-3.0072,-3.0037,-3.0036,-3.0035,-3.0034,-3.0039,-3.004,-3.0041,0,0,0,0,0,0,0,0,0,0,0,0,0,-3.0023,-3.0024,-3.0066,-3.0066,-3.0066,-3.0072,-3.0072,-3.0072,-3.0037,-3.0036,-3.0035,-3.0034,-3.0039,-3.004,-3.0041,0,0,0,0,0,0,0,0,0,0,0,0,0,-3.0037,-3.0024,-3.0066,-3.0049,-3.0048,-3.0072,-3.0072,-3.0072,-3.0038,-3.0036,-3.0035,-3.0033,-3.0038,-3.004,-3.0041,-3.008,0,0,-3.0046,-3.0047,0,0,0,0,0,0,0,0,-3.0036,-3.0038,-3.0052,-3.0051,-3.0049,-3.0052,-3.0058,-3.0075,-3.0038,-3.0042,-3.0034,-3.0033,-3.0044,-3.0045,-3.005,-3.008,-3.0081,-3.0046,-3.0047,-3.0048,-3.0048,0,0,0,0,0,0,0,-3.0035,-3.0038,-3.0068,-3.0052,-3.005,-3.0041,-3.0042,-3.0061,-3.0051,-3.0041,-3.0039,-3.004,-3.0043,-3.0048,-3.005,-3.0081,-3.0046,-3.0047,-3.0048,-3.0049,-3.0145,-3.0146,0,0,0,0,0,0,-3.0036,-3.0037,-3.0068,-3.0068,-3.0039,-3.0043,-3.0044,-3.0053,-3.0051,-3.0049,-3.0041,-3.0038,-3.0046,-3.0048,-3.005,-3.0096,-3.0048,-3.0049,-3.005,-3.0143,-3.0145,-3.0147,0,0,0,0,0,0,-3.0036,-3.0039,-3.0068,-3.0052,-3.0055,-3.0046,-3.0056,-3.0054,-3.0058,-3.0051,-3.0049,-3.0048,-3.0045,-3.0047,-3.0073,-3.0096,-3.005,-3.0051,-3.0141,-3.0144,-3.0146,-3.019,0,0,0,0,0,0,-3.0035,-3.0039,-3.0054,-3.0053,-3.0056,-3.0092,-3.0057,-3.0055,-3.0061,-3.0058,-3.0057,-3.0055,-3.0044,-3.0071,-3.0075,-3.0097,-3.0052,-3.0139,-3.0143,-3.0145,-3.0186,-3.0193,-3.0199,0,0,0,0,0,-3.0033,-3.0066,-3.0055,-3.0059,-3.0075,-3.0093,-3.0095,-3.0082,-3.0063,-3.0078,-3.0074,-3.0055,-3.0093,-3.0074,-3.0078,-3.0101,-3.0138,-3.0142,-3.0145,-3.0183,-3.0192,-3.0199,0,0,0,0,0,0,-3.007,-3.0065,-3.0054,-3.0087,-3.0091,-3.0087,-3.0106,-3.0091,-3.01,-3.0096,-3.0079,-3.0079,-3.0108,-3.0107,-3.0086,-3.0139,-3.0112,-3.0117,-3.014,-3.0148,-3.0154,-3.0154,-3.0054,0,0,0,0,0,-3.0082,-3.0098,-3.0092,-3.0122,-3.0125,-3.0115,-3.0123,-3.0112,-3.0115,-3.0117,-3.0114,-3.0117,-3.013,-3.0138,-3.0149,-3.0185,-3.0185,-3.0203,-3.021,-3.0215,-3.022,-3.024,-3.0248,-3.0159,-3.0159,-3.0159,0,0,-3.0106,-3.0106,-3.0117,-3.013,-3.0131,-3.0148,-3.0117,-3.0135,-3.0148,-3.0119,-3.0144,-3.0142,-3.0145,-3.0176,-3.019,-3.0176,-3.0244,-3.022,-3.0224,-3.0226,-3.0244,-3.0253,-3.026,-3.0161,-3.0161,-3.0161,0,0,-3.0161,-3.0161,-3.0187,-3.019,-3.0193,-3.0187,-3.0193,-3.0192,-3.019,-3.0214,-3.0194,-3.0208,-3.0229,-3.0233,-3.0237,-3.0293,-3.0277,-3.0297,-3.0332,-3.0351,-3.0358,-3.0365,-3.0386,-3.0393,-3.0301,-3.0301,-3.0301,0,-3.0191,-3.0216,-3.0202,-3.0223,-3.0229,-3.0205,-3.0231,-3.0234,-3.024,-3.0245,-3.0229,-3.0257,-3.0257,-3.0289,-3.0303,-3.0307,-3.0314,-3.0297,-3.0359,-3.0365,-3.037,-3.039,-3.0398,-3.0304,-3.0303,-3.0303,-3.0303,0,-3.0254,-3.0271,-3.0291,-3.03,-3.0308,-3.0331,-3.032,-3.0331,-3.032,-3.0315,-3.034,-3.0339,-3.035,-3.0357,-3.0346,-3.0388,-3.038,-3.0362,-3.0334,-3.0381,-3.04,-3.0408,-3.0307,-3.0306,-3.0306,-3.0305,0,0,-3.0332,-3.0332,-3.034,-3.0344,-3.0346,-3.036,-3.0381,-3.0393,-3.0403,-3.0408,-3.0426,-3.0445,-3.0429,-3.0434,-3.0423,-3.044,-3.0486,-3.042,-3.042,-3.0433,-3.0534,-3.0549,-3.0558,-3.0475,-3.0476,-3.0477,-3.0534,0,-3.0386,-3.0425,-3.0413,-3.0451,-3.0468,-3.0445,-3.0464,-3.0468,-3.0464,-3.0477,-3.0472,-3.0486,-3.0463,-3.0466,-3.0482,-3.0477,-3.0506,-3.0473,-3.0492,-3.0493,-3.0494,-3.0567,-3.0583,-3.0637,-3.0541,-3.0542,-3.0543,0,-3.0454,-3.0464,-3.0505,-3.0505,-3.0512,-3.0529,-3.054,-3.0552,-3.0555,-3.0551,-3.0557,-3.0543,-3.0564,-3.0536,-3.0566,-3.0543,-3.055,-3.0549,-3.0551,-3.0553,-3.0522,-3.0573,-3.0653,-3.0662,-3.0554,-3.0553,-3.0553,0,-3.0509,-3.0532,-3.0559,-3.0563,-3.0564,-3.0577,-3.0578,-3.058,-3.0588,-3.0596,-3.0601,-3.0612,-3.0618,-3.0626,-3.0615,-3.0595,-3.0647,-3.0617,-3.0644,-3.0645,-3.0657,-3.0657,-3.0741,-3.066,-3.066,-3.0659,-3.0659,0,-3.0572,-3.0598,-3.0584,-3.0602,-3.063,-3.0616,-3.0645,-3.0643,-3.0645,-3.0661,-3.0641,-3.0657,-3.0641,-3.0655,-3.0646,-3.0672,-3.0675,-3.0672,-3.067,-3.0675,-3.0676,-3.068,-3.0677,-3.0662,-3.0661,-3.0661,-3.066,0,-3.0638,-3.063,-3.0659,-3.0658,-3.0658,-3.0679,-3.0678,-3.0694,-3.0688,-3.0709,-3.0713,-3.0705,-3.072,-3.071,-3.0725,-3.0719,-3.0754,-3.0746,-3.0754,-3.0752,-3.0781,-3.0779,-3.0872,-3.0884,-3.0794,-3.0794,-3.0795,0,-3.068,-3.0699,-3.0701,-3.0711,-3.0713,-3.0729,-3.0738,-3.0724,-3.0734,-3.0739,-3.0755,-3.0769,-3.0779,-3.0805,-3.08,-3.0812,-3.0804,-3.0836,-3.0806,-3.0811,-3.0807,-3.0806,-3.0809,-3.0843,-3.0844,-3.0845,-3.0846,0,-3.0754,-3.0749,-3.0763,-3.0775,-3.0786,-3.0794,-3.0801,-3.081,-3.0797,-3.0808,-3.0825,-3.0833,-3.0849,-3.0864,-3.0874,-3.0874,-3.0858,-3.0855,-3.0862,-3.0869,-3.0873,-3.0872,-3.0772,-3.0853,-3.0853,-3.0852,-3.0852,-3.0851,-3.081,-3.0828,-3.0832,-3.0847,-3.0851,-3.0858,-3.0874,-3.087,-3.0884,-3.0897,-3.0888,-3.0907,-3.091,-3.0922,-3.0924,-3.0939,-3.0926,-3.0936,-3.0939,-3.0942,-3.0947,-3.0869,-3.0941,-3.0941,-3.094,-3.094,-3.094,0,-3.0885,-3.0887,-3.0902,-3.0913,-3.0925,-3.0909,-3.0916,-3.0928,-3.0945,-3.095,-3.0961,-3.098,-3.0994,-3.099,-3.1003,-3.1016,-3.1009,-3.102,-3.1019,-3.102,-3.0957,-3.0951,-3.1025,-3.1025,-3.1025,-3.1025,-3.1025,-3.1025,-3.0926,-3.0955,-3.0951,-3.0981,-3.0982,-3.1002,-3.1008,-3.1014,-3.1018,-3.104,-3.1052,-3.105,-3.1051,-3.1064,-3.1076,-3.1074,-3.1081,-3.1094,-3.109,-3.1032,-3.1024,-3.1016,-3.101,-3.1096,-3.1096,-3.1152,-3.1152,-3.1153]}]]